Weather History for Clinton, OK

Change the Weather History Date:

Wednesday, September 18, 2013

  Actual Average (KCSM) Record (KCSM)
Temperature  
Mean Temperature 79 °F -  
Max Temperature 89 °F 83 °F 99 °F (2002)
Min Temperature 69 °F 59 °F 51 °F (2003)
Cooling Degree Days 14    
Growing Degree Days 29 (Base 50)    
Moisture  
Dew Point 61 °F    
Average Humidity 60    
Maximum Humidity 83    
Minimum Humidity 27    
Precipitation  
Precipitation 0.00 in - - ()
Sea Level Pressure  
Sea Level Pressure 29.95 in    
Wind  
Wind Speed 11 mph (South)    
Max Wind Speed 25 mph    
Max Gust Speed 36 mph    
Visibility 10 miles    
Events      
Averages and records for this station are not official NWS values.
T = Trace of Precipitation, MM = Missing Value Source: NWS Daily Summary

Daily Weather History Graph

Daily Weather History Graph

Search for Another Location

Airport:

Trip Planner

Search our weather history database for the weather conditions in past years. The results will help you decide how hot, cold, wet, or windy it might be!

Date:

Astronomy

Sep. 18, 2013 Rise Set
Actual Time 7:20 AM CDT 7:38 PM CDT
Civil Twilight 6:55 AM CDT 8:03 PM CDT
Nautical Twilight 6:25 AM CDT 8:33 PM CDT
Astronomical Twilight 5:55 AM CDT 9:03 PM CDT
Moon 7:02 PM CDT (9/18) 6:25 AM CDT (9/18)
Length of Visible Light 13h 08m
Length of Day
12h 17m
Waxing Gibbous, 99% of the Moon is Illuminated
Sep 18
Waxing Gibbous
Sep 19
Full
Sep 26
Last Quarter
Oct 4
New
Oct 11
First Quarter

Hourly Weather History & Observations

Time (CDT) Temp. Heat Index Dew Point Humidity Pressure Visibility Wind Dir Wind Speed Gust Speed Precip Events Conditions
12:15 AM 69.8 °F - 64.4 °F 83% 30.00 in 10.0 mi South 8.1 mph - N/A   Clear
12:35 AM 69.8 °F - 64.4 °F 83% 30.01 in 10.0 mi SSE 8.1 mph - N/A   Clear
12:55 AM 71.6 °F - 64.4 °F 78% 30.01 in 10.0 mi SSE 8.1 mph - N/A   Scattered Clouds
1:15 AM 71.6 °F - 64.4 °F 78% 30.00 in 10.0 mi South 9.2 mph - N/A   Scattered Clouds
1:35 AM 71.6 °F - 64.4 °F 78% 30.00 in 10.0 mi South 9.2 mph - N/A   Clear
1:55 AM 71.6 °F - 64.4 °F 78% 30.00 in 10.0 mi South 9.2 mph - N/A   Clear
2:15 AM 71.6 °F - 64.4 °F 78% 30.00 in 10.0 mi SSE 6.9 mph - N/A   Clear
2:35 AM 71.6 °F - 64.4 °F 78% 30.00 in 10.0 mi South 4.6 mph - N/A   Clear
2:55 AM 69.8 °F - 64.4 °F 83% 30.00 in 10.0 mi South 5.8 mph - N/A   Scattered Clouds
3:15 AM 71.6 °F - 64.4 °F 78% 29.99 in 10.0 mi SSE 5.8 mph - N/A   Mostly Cloudy
3:35 AM 71.6 °F - 64.4 °F 78% 29.99 in 10.0 mi SSE 6.9 mph - N/A   Overcast
3:55 AM 71.6 °F - 64.4 °F 78% 29.98 in 10.0 mi South 9.2 mph - N/A   Overcast
4:15 AM 71.6 °F - 64.4 °F 78% 29.98 in 10.0 mi South 10.4 mph - N/A   Overcast
4:35 AM 71.6 °F - 64.4 °F 78% 29.97 in 10.0 mi South 9.2 mph - N/A   Scattered Clouds
4:55 AM 69.8 °F - 64.4 °F 83% 29.97 in 10.0 mi South 9.2 mph - N/A   Clear
5:15 AM 69.8 °F - 64.4 °F 83% 29.96 in 10.0 mi SSE 6.9 mph - N/A   Clear
5:35 AM 69.8 °F - 64.4 °F 83% 29.96 in 10.0 mi SSE 8.1 mph - N/A   Clear
5:55 AM 69.8 °F - 64.4 °F 83% 29.96 in 10.0 mi SSE 6.9 mph - N/A   Clear
6:15 AM 69.8 °F - 64.4 °F 83% 29.96 in 10.0 mi South 6.9 mph - N/A   Clear
6:35 AM 69.8 °F - 64.4 °F 83% 29.96 in 10.0 mi SSE 8.1 mph - N/A   Clear
6:55 AM 69.8 °F - 64.4 °F 83% 29.96 in 10.0 mi South 6.9 mph - N/A   Clear
7:15 AM 69.8 °F - 64.4 °F 83% 29.96 in 10.0 mi SSE 6.9 mph - N/A   Clear
7:35 AM 69.8 °F - 64.4 °F 83% 29.97 in 10.0 mi South 5.8 mph - N/A   Clear
7:55 AM 69.8 °F - 64.4 °F 83% 29.98 in 10.0 mi South 8.1 mph - N/A   Clear
8:15 AM 69.8 °F - 64.4 °F 83% 29.99 in 10.0 mi South 9.2 mph - N/A   Clear
8:35 AM 69.8 °F - 64.4 °F 83% 29.99 in 10.0 mi South 8.1 mph - N/A   Clear
8:55 AM 71.6 °F - 64.4 °F 78% 29.99 in 10.0 mi South 9.2 mph - N/A   Clear
9:15 AM 71.6 °F - 64.4 °F 78% 29.99 in 10.0 mi South 9.2 mph - N/A   Clear
9:35 AM 73.4 °F - 64.4 °F 73% 30.00 in 10.0 mi South 12.7 mph - N/A   Clear
9:55 AM 75.2 °F - 64.4 °F 69% 30.00 in 10.0 mi South 11.5 mph - N/A   Clear
10:15 AM 77.0 °F - 64.4 °F 65% 30.01 in 10.0 mi South 10.4 mph - N/A   Clear
10:35 AM 77.0 °F - 64.4 °F 65% 30.01 in 10.0 mi South 11.5 mph - N/A   Clear
10:55 AM 78.8 °F - 64.4 °F 61% 30.01 in 10.0 mi South 12.7 mph - N/A   Clear
11:15 AM 80.6 °F 82.3 °F 64.4 °F 58% 30.01 in 10.0 mi SSW 13.8 mph - N/A   Clear
11:35 AM 80.6 °F 82.3 °F 64.4 °F 58% 30.00 in 10.0 mi SSW 11.5 mph - N/A   Clear
11:55 AM 82.4 °F 83.4 °F 62.6 °F 51% 30.00 in 10.0 mi SSW 17.3 mph 24.2 mph N/A   Clear
12:15 PM 84.2 °F 85.0 °F 62.6 °F 48% 29.99 in 10.0 mi SSW 21.9 mph 26.5 mph N/A   Clear
12:35 PM 84.2 °F 84.4 °F 60.8 °F 45% 29.98 in 10.0 mi SSW 18.4 mph 28.8 mph N/A   Clear
12:55 PM 86.0 °F 86.1 °F 60.8 °F 43% 29.98 in 10.0 mi SSW 18.4 mph 24.2 mph N/A   Clear
1:15 PM 86.0 °F 85.4 °F 59.0 °F 40% 29.97 in 10.0 mi SSW 20.7 mph 26.5 mph N/A   Clear
1:35 PM 86.0 °F 85.4 °F 59.0 °F 40% 29.96 in 10.0 mi South 25.3 mph 29.9 mph N/A   Clear
1:55 PM 87.8 °F 87.1 °F 59.0 °F 38% 29.96 in 10.0 mi SSW 21.9 mph 28.8 mph N/A   Clear
2:15 PM 87.8 °F 87.1 °F 59.0 °F 38% 29.95 in 10.0 mi South 21.9 mph 28.8 mph N/A   Clear
2:35 PM 87.8 °F 87.1 °F 59.0 °F 38% 29.94 in 10.0 mi South 19.6 mph 28.8 mph N/A   Clear
2:55 PM 87.8 °F 86.1 °F 55.4 °F 33% 29.93 in 10.0 mi SSW 20.7 mph 31.1 mph N/A   Clear
3:15 PM 87.8 °F 86.1 °F 55.4 °F 33% 29.92 in 10.0 mi South 25.3 mph 32.2 mph N/A   Clear
3:35 PM 89.6 °F 87.3 °F 53.6 °F 29% 29.92 in 10.0 mi SSW 24.2 mph 29.9 mph N/A   Clear
3:55 PM 89.6 °F - 51.8 °F 27% 29.91 in 10.0 mi South 21.9 mph 31.1 mph N/A   Clear
4:15 PM 89.6 °F 87.3 °F 53.6 °F 29% 29.91 in 10.0 mi South 20.7 mph 25.3 mph N/A   Clear
4:35 PM 87.8 °F - 51.8 °F 29% 29.90 in 10.0 mi South 25.3 mph 35.7 mph N/A   Clear
4:55 PM 89.6 °F 87.3 °F 53.6 °F 29% 29.89 in 10.0 mi South 21.9 mph 28.8 mph N/A   Clear
5:15 PM 87.8 °F 85.7 °F 53.6 °F 31% 29.89 in 10.0 mi South 18.4 mph 29.9 mph N/A   Clear
5:35 PM 87.8 °F 86.1 °F 55.4 °F 33% 29.89 in 10.0 mi South 20.7 mph 28.8 mph N/A   Clear
5:55 PM 87.8 °F 86.1 °F 55.4 °F 33% 29.88 in 10.0 mi South 20.7 mph - N/A   Clear
6:15 PM 87.8 °F 86.1 °F 55.4 °F 33% 29.88 in 10.0 mi South 17.3 mph 25.3 mph N/A   Clear
6:35 PM 87.8 °F 85.7 °F 53.6 °F 31% 29.88 in 10.0 mi South 17.3 mph 25.3 mph N/A   Clear
6:55 PM 86.0 °F - 51.8 °F 31% 29.88 in 10.0 mi South 15.0 mph 24.2 mph N/A   Clear
7:15 PM 86.0 °F 84.2 °F 53.6 °F 33% 29.88 in 10.0 mi South 16.1 mph 21.9 mph N/A   Clear
7:35 PM 84.2 °F 83.0 °F 55.4 °F 37% 29.88 in 10.0 mi South 13.8 mph - N/A   Clear
7:55 PM 82.4 °F 82.0 °F 57.2 °F 42% 29.88 in 10.0 mi South 12.7 mph - N/A   Clear
8:15 PM 80.6 °F 81.1 °F 59.0 °F 48% 29.88 in 10.0 mi South 10.4 mph - N/A   Clear
8:35 PM 78.8 °F - 59.0 °F 51% 29.88 in 10.0 mi South 9.2 mph - N/A   Clear
8:55 PM 78.8 °F - 59.0 °F 51% 29.89 in 10.0 mi South 9.2 mph - N/A   Clear
9:15 PM 77.0 °F - 60.8 °F 57% 29.90 in 10.0 mi South 8.1 mph - N/A   Clear
9:35 PM 77.0 °F - 59.0 °F 54% 29.90 in 10.0 mi South 8.1 mph - N/A   Clear
9:55 PM 75.2 °F - 59.0 °F 57% 29.91 in 10.0 mi South 6.9 mph - N/A   Clear
10:15 PM 73.4 °F - 59.0 °F 61% 29.91 in 10.0 mi South 9.2 mph - N/A   Clear
10:35 PM 73.4 °F - 59.0 °F 61% 29.91 in 10.0 mi South 8.1 mph - N/A   Clear
10:55 PM 71.6 °F - 59.0 °F 64% 29.92 in 10.0 mi South 6.9 mph - N/A   Clear
11:15 PM 71.6 °F - 59.0 °F 64% 29.92 in 10.0 mi SSE 6.9 mph - N/A   Clear
11:35 PM 71.6 °F - 59.0 °F 64% 29.92 in 10.0 mi SSE 6.9 mph - N/A   Clear
11:55 PM 71.6 °F - 59.0 °F 64% 29.92 in 10.0 mi SSE 6.9 mph - N/A   Clear